| time (UTC) | temp C | wind direction | speed KPH | gust KPH | rain 1hr cm | rain 24hr cm | rain mn cm | humidity % | barometer mb |
| 20260508014519 | 10 | 90 | 1.6 | 4.8 | 0.00 | 0.00 | 0.00 | 78 | 1015.5 |
| 20260508013518 | 10 | 0.0 | 1.6 | 0.00 | 0.00 | 0.00 | 78 | 1015.5 | |
| 20260508012519 | 10 | 90 | 3.2 | 6.4 | 0.00 | 0.00 | 0.00 | 77 | 1015.4 |
| 20260508011520 | 10 | 68 | 1.6 | 3.2 | 0.00 | 0.00 | 0.00 | 76 | 1015.6 |
| 20260508010518 | 10 | 68 | 3.2 | 6.4 | 0.00 | 0.00 | 0.00 | 75 | 1015.3 |
| 20260508005519 | 10 | 68 | 3.2 | 4.8 | 0.00 | 0.00 | 0.00 | 74 | 1015.7 |
| 20260508004543 | 10 | 68 | 1.6 | 3.2 | 0.00 | 0.00 | 0.00 | 74 | 1015.7 |
| 20260508003544 | 10 | 0.0 | 3.2 | 0.00 | 0.00 | 0.00 | 73 | 1015.6 | |
| 20260508002517 | 11 | 68 | 3.2 | 4.8 | 0.00 | 0.00 | 0.00 | 73 | 1015.7 |
| 20260508001518 | 11 | 68 | 3.2 | 4.8 | 0.00 | 0.00 | 0.00 | 73 | 1015.8 |
| 20260508000518 | 11 | 68 | 1.6 | 4.8 | 0.00 | 0.00 | 0.00 | 71 | 1015.9 |
| 20260507235519 | 11 | 90 | 3.2 | 4.8 | 0.00 | 0.00 | 0.00 | 71 | 1015.9 |
| 20260507234542 | 11 | 68 | 3.2 | 4.8 | 0.00 | 0.00 | 0.00 | 70 | 1015.9 |
| 20260507233559 | 11 | 68 | 1.6 | 4.8 | 0.00 | 0.00 | 0.00 | 70 | 1016.0 |
| 20260507232524 | 11 | 68 | 3.2 | 6.4 | 0.00 | 0.00 | 0.00 | 70 | 1016.1 |
| 20260507231519 | 11 | 68 | 3.2 | 6.4 | 0.00 | 0.00 | 0.00 | 70 | 1016.0 |
| 20260507230542 | 11 | 135 | 1.6 | 4.8 | 0.00 | 0.00 | 0.00 | 69 | 1016.0 |
| 20260507225518 | 11 | 135 | 1.6 | 4.8 | 0.00 | 0.00 | 0.00 | 69 | 1015.9 |
| 20260507224519 | 11 | 135 | 1.6 | 4.8 | 0.00 | 0.00 | 0.00 | 67 | 1015.8 |
| 20260507223519 | 11 | 0.0 | 3.2 | 0.00 | 0.00 | 0.00 | 66 | 1015.8 | |
| 20260507222519 | 11 | 135 | 1.6 | 3.2 | 0.00 | 0.00 | 0.00 | 66 | 1015.9 |
| 20260507221519 | 11 | 135 | 1.6 | 4.8 | 0.00 | 0.00 | 0.00 | 66 | 1015.9 |
| 20260507220538 | 11 | 135 | 3.2 | 6.4 | 0.00 | 0.00 | 0.00 | 67 | 1016.1 |
| 20260507215525 | 11 | 135 | 1.6 | 6.4 | 0.00 | 0.00 | 0.00 | 70 | 1016.1 |
| 20260507214520 | 11 | 135 | 1.6 | 4.8 | 0.00 | 0.00 | 0.00 | 72 | 1016.2 |
| 20260507213543 | 11 | 0.0 | 3.2 | 0.00 | 0.00 | 0.00 | 70 | 1016.2 | |
| 20260507212519 | 11 | 135 | 1.6 | 4.8 | 0.00 | 0.00 | 0.00 | 69 | 1016.1 |
| 20260507211523 | 11 | 0.0 | 0.0 | 0.00 | 0.00 | 0.00 | 69 | 1016.1 | |
| 20260507210518 | 11 | 0.0 | 0.0 | 0.00 | 0.00 | 0.00 | 70 | 1016.1 | |
| 20260507205519 | 11 | 135 | 1.6 | 3.2 | 0.00 | 0.00 | 0.00 | 70 | 1016.0 |
| 20260507204518 | 11 | 0.0 | 3.2 | 0.00 | 0.00 | 0.00 | 70 | 1015.9 | |
| 20260507203523 | 12 | 135 | 1.6 | 3.2 | 0.00 | 0.00 | 0.00 | 69 | 1015.8 |
| 20260507202519 | 12 | 0.0 | 1.6 | 0.00 | 0.00 | 0.00 | 67 | 1015.7 | |
| 20260507201518 | 12 | 0.0 | 1.6 | 0.00 | 0.00 | 0.00 | 64 | 1015.6 | |
| 20260507200524 | 12 | 135 | 1.6 | 3.2 | 0.00 | 0.00 | 0.00 | 63 | 1015.7 |
| 20260507195517 | 12 | 135 | 1.6 | 3.2 | 0.00 | 0.00 | 0.00 | 64 | 1015.6 |
| 20260507194519 | 12 | 135 | 3.2 | 4.8 | 0.00 | 0.00 | 0.00 | 61 | 1015.4 |
| 20260507193518 | 12 | 135 | 1.6 | 4.8 | 0.00 | 0.00 | 0.00 | 62 | 1015.4 |
| 20260507192518 | 12 | 135 | 1.6 | 3.2 | 0.00 | 0.00 | 0.00 | 62 | 1015.3 |
| 20260507191518 | 13 | 135 | 1.6 | 3.2 | 0.00 | 0.00 | 0.00 | 64 | 1015.4 |
| 20260507190521 | 13 | 135 | 1.6 | 4.8 | 0.00 | 0.00 | 0.00 | 63 | 1015.4 |
| 20260507185519 | 13 | 158 | 1.6 | 3.2 | 0.00 | 0.00 | 0.00 | 63 | 1015.3 |
| 20260507184519 | 13 | 203 | 1.6 | 9.7 | 0.00 | 0.00 | 0.00 | 63 | 1015.2 |
| 20260507183519 | 13 | 203 | 1.6 | 6.4 | 0.00 | 0.00 | 0.00 | 62 | 1015.1 |
| 20260507182518 | 13 | 203 | 3.2 | 4.8 | 0.00 | 0.00 | 0.00 | 61 | 1015.3 |
| 20260507181525 | 13 | 203 | 4.8 | 8.0 | 0.00 | 0.00 | 0.00 | 60 | 1015.2 |
| 20260507180522 | 13 | 203 | 6.4 | 12.9 | 0.00 | 0.00 | 0.00 | 58 | 1015.5 |
| 20260507175518 | 14 | 203 | 6.4 | 12.9 | 0.00 | 0.00 | 0.00 | 57 | 1015.3 |
| 20260507174518 | 14 | 180 | 4.8 | 11.3 | 0.00 | 0.00 | 0.00 | 57 | 1015.3 |
| 20260507173543 | 14 | 225 | 6.4 | 12.9 | 0.00 | 0.00 | 0.00 | 56 | 1015.4 |
| 20260507172518 | 15 | 203 | 8.0 | 12.9 | 0.00 | 0.00 | 0.00 | 54 | 1015.4 |
| 20260507171518 | 15 | 203 | 8.0 | 12.9 | 0.00 | 0.00 | 0.00 | 54 | 1015.3 |
| 20260507170517 | 15 | 180 | 8.0 | 16.1 | 0.00 | 0.00 | 0.00 | 52 | 1015.2 |
| 20260507165518 | 15 | 180 | 6.4 | 12.9 | 0.00 | 0.00 | 0.00 | 52 | 1015.3 |
| 20260507164518 | 15 | 203 | 8.0 | 16.1 | 0.00 | 0.00 | 0.00 | 52 | 1015.5 |
| 20260507163518 | 15 | 180 | 6.4 | 14.5 | 0.00 | 0.00 | 0.00 | 50 | 1015.4 |
| 20260507162518 | 16 | 180 | 8.0 | 20.9 | 0.00 | 0.00 | 0.00 | 50 | 1015.4 |
| 20260507161543 | 16 | 135 | 9.7 | 16.1 | 0.00 | 0.00 | 0.00 | 49 | 1015.5 |
| 20260507160518 | 16 | 203 | 6.4 | 14.5 | 0.00 | 0.00 | 0.00 | 51 | 1015.5 |
| 20260507155518 | 16 | 203 | 8.0 | 14.5 | 0.00 | 0.00 | 0.00 | 53 | 1015.5 |
| 20260507154520 | 16 | 203 | 6.4 | 11.3 | 0.00 | 0.00 | 0.00 | 52 | 1015.7 |
| 20260507153520 | 16 | 180 | 9.7 | 19.3 | 0.00 | 0.00 | 0.00 | 49 | 1015.6 |
| 20260507152519 | 16 | 203 | 9.7 | 22.5 | 0.00 | 0.00 | 0.00 | 52 | 1015.6 |
| 20260507151518 | 16 | 203 | 9.7 | 16.1 | 0.00 | 0.00 | 0.00 | 50 | 1015.7 |
| 20260507150520 | 16 | 203 | 11.3 | 22.5 | 0.00 | 0.00 | 0.00 | 49 | 1015.7 |
| 20260507145522 | 16 | 203 | 12.9 | 20.9 | 0.00 | 0.00 | 0.00 | 47 | 1015.8 |
| 20260507144520 | 16 | 203 | 12.9 | 22.5 | 0.00 | 0.00 | 0.00 | 45 | 1015.7 |
| 20260507143544 | 17 | 203 | 14.5 | 27.4 | 0.00 | 0.00 | 0.00 | 46 | 1015.8 |
| 20260507142528 | 17 | 203 | 11.3 | 19.3 | 0.00 | 0.00 | 0.00 | 51 | 1015.9 |
| 20260507141520 | 16 | 203 | 9.7 | 19.3 | 0.00 | 0.00 | 0.00 | 51 | 1015.9 |
| 20260507140525 | 16 | 203 | 9.7 | 16.1 | 0.00 | 0.00 | 0.00 | 50 | 1016.2 |
| 20260507135539 | 16 | 180 | 6.4 | 12.9 | 0.00 | 0.00 | 0.00 | 54 | 1016.0 |
| 20260507134519 | 16 | 203 | 9.7 | 19.3 | 0.00 | 0.00 | 0.00 | 52 | 1016.1 |
| 20260507133520 | 15 | 180 | 6.4 | 11.3 | 0.00 | 0.00 | 0.00 | 59 | 1015.9 |
| 20260507132540 | 15 | 203 | 6.4 | 14.5 | 0.00 | 0.00 | 0.00 | 58 | 1016.0 |
| 20260507131545 | 15 | 203 | 8.0 | 16.1 | 0.00 | 0.00 | 0.00 | 57 | 1016.1 |
| 20260507130520 | 15 | 203 | 8.0 | 16.1 | 0.00 | 0.00 | 0.00 | 57 | 1016.2 |
| 20260507125519 | 15 | 203 | 9.7 | 17.7 | 0.00 | 0.00 | 0.00 | 58 | 1016.2 |
| 20260507124541 | 15 | 203 | 9.7 | 17.7 | 0.00 | 0.00 | 0.00 | 56 | 1016.2 |
| 20260507123520 | 15 | 203 | 11.3 | 20.9 | 0.00 | 0.00 | 0.00 | 55 | 1016.2 |
| 20260507122519 | 15 | 180 | 9.7 | 20.9 | 0.00 | 0.00 | 0.00 | 56 | 1016.3 |
| 20260507121518 | 15 | 203 | 9.7 | 20.9 | 0.00 | 0.00 | 0.00 | 54 | 1016.3 |
| 20260507120520 | 15 | 180 | 11.3 | 20.9 | 0.00 | 0.00 | 0.00 | 56 | 1016.1 |
| 20260507115519 | 15 | 203 | 9.7 | 17.7 | 0.00 | 0.00 | 0.00 | 60 | 1016.1 |
| 20260507114520 | 15 | 203 | 8.0 | 17.7 | 0.00 | 0.00 | 0.00 | 63 | 1016.0 |
| 20260507113520 | 15 | 180 | 8.0 | 16.1 | 0.00 | 0.00 | 0.00 | 64 | 1016.2 |
| 20260507112519 | 14 | 203 | 9.7 | 19.3 | 0.00 | 0.00 | 0.00 | 63 | 1016.2 |
| 20260507111519 | 15 | 180 | 9.7 | 20.9 | 0.00 | 0.00 | 0.00 | 62 | 1016.2 |
| 20260507110521 | 15 | 180 | 8.0 | 19.3 | 0.00 | 0.00 | 0.00 | 63 | 1016.3 |
| 20260507105519 | 15 | 203 | 8.0 | 17.7 | 0.00 | 0.00 | 0.00 | 64 | 1016.4 |
| 20260507104540 | 15 | 203 | 8.0 | 16.1 | 0.00 | 0.00 | 0.00 | 66 | 1016.4 |
| 20260507103520 | 14 | 203 | 8.0 | 17.7 | 0.00 | 0.00 | 0.00 | 66 | 1016.3 |
| 20260507102519 | 14 | 180 | 9.7 | 17.7 | 0.00 | 0.00 | 0.00 | 65 | 1016.4 |
| 20260507101519 | 15 | 180 | 8.0 | 19.3 | 0.00 | 0.00 | 0.00 | 66 | 1016.5 |
| 20260507100519 | 14 | 180 | 8.0 | 16.1 | 0.00 | 0.00 | 0.00 | 68 | 1016.3 |
| 20260507095538 | 13 | 203 | 9.7 | 16.1 | 0.00 | 0.00 | 0.00 | 69 | 1016.2 |
| 20260507094519 | 14 | 180 | 6.4 | 14.5 | 0.00 | 0.00 | 0.00 | 69 | 1016.2 |
| 20260507093538 | 14 | 180 | 4.8 | 16.1 | 0.00 | 0.00 | 0.00 | 68 | 1016.3 |
| 20260507092519 | 14 | 203 | 4.8 | 11.3 | 0.00 | 0.00 | 0.00 | 68 | 1016.1 |
| 20260507091539 | 14 | 203 | 6.4 | 16.1 | 0.00 | 0.00 | 0.00 | 67 | 1016.3 |
| 20260507090518 | 13 | 180 | 6.4 | 12.9 | 0.00 | 0.00 | 0.00 | 70 | 1016.4 |
| 20260507085519 | 13 | 180 | 3.2 | 6.4 | 0.00 | 0.00 | 0.00 | 72 | 1016.5 |
| 20260507084519 | 13 | 113 | 4.8 | 12.9 | 0.00 | 0.00 | 0.00 | 71 | 1016.2 |
| 20260507083519 | 13 | 180 | 4.8 | 8.0 | 0.00 | 0.00 | 0.00 | 74 | 1016.4 |
| 20260507082519 | 12 | 203 | 4.8 | 8.0 | 0.00 | 0.00 | 0.00 | 76 | 1016.1 |
| 20260507081539 | 12 | 180 | 3.2 | 8.0 | 0.00 | 0.00 | 0.00 | 76 | 1016.4 |
| 20260507080539 | 12 | 113 | 1.6 | 6.4 | 0.00 | 0.00 | 0.00 | 78 | 1016.3 |
| 20260507075539 | 11 | 113 | 3.2 | 4.8 | 0.00 | 0.00 | 0.00 | 78 | 1016.3 |
| 20260507074519 | 11 | 68 | 3.2 | 6.4 | 0.00 | 0.00 | 0.00 | 79 | 1016.1 |
| 20260507073520 | 11 | 68 | 1.6 | 8.0 | 0.00 | 0.00 | 0.00 | 79 | 1016.0 |
| 20260507072539 | 10 | 68 | 4.8 | 6.4 | 0.00 | 0.00 | 0.00 | 79 | 1016.0 |
| 20260507071519 | 10 | 45 | 1.6 | 3.2 | 0.00 | 0.00 | 0.00 | 80 | 1016.0 |
| 20260507070524 | 10 | 45 | 1.6 | 4.8 | 0.00 | 0.00 | 0.00 | 81 | 1015.9 |
| 20260507065519 | 10 | 68 | 3.2 | 6.4 | 0.00 | 0.00 | 0.00 | 81 | 1015.8 |
| 20260507064520 | 9 | 68 | 3.2 | 6.4 | 0.00 | 0.00 | 0.00 | 82 | 1015.7 |
| 20260507063520 | 8 | 68 | 3.2 | 4.8 | 0.00 | 0.00 | 0.00 | 82 | 1015.7 |
| 20260507062519 | 8 | 45 | 1.6 | 4.8 | 0.00 | 0.00 | 0.00 | 83 | 1015.6 |
| 20260507061519 | 8 | 45 | 1.6 | 4.8 | 0.00 | 0.00 | 0.00 | 84 | 1015.6 |
| 20260507060534 | 8 | 45 | 1.6 | 3.2 | 0.00 | 0.00 | 0.00 | 84 | 1015.8 |
| 20260507055520 | 7 | 0.0 | 0.0 | 0.00 | 0.00 | 0.00 | 85 | 1015.8 | |
| 20260507054520 | 7 | 0.0 | 0.0 | 0.00 | 0.00 | 0.00 | 85 | 1015.7 | |
| 20260507053519 | 7 | 0.0 | 0.0 | 0.00 | 0.00 | 0.00 | 85 | 1015.7 | |
| 20260507052519 | 7 | 0.0 | 0.0 | 0.00 | 0.00 | 0.00 | 84 | 1015.5 | |
| 20260507051539 | 7 | 0.0 | 0.0 | 0.00 | 0.00 | 0.00 | 84 | 1015.5 | |
| 20260507050539 | 7 | 0.0 | 0.0 | 0.00 | 0.00 | 0.00 | 83 | 1015.5 | |
| 20260507045519 | 7 | 0.0 | 3.2 | 0.00 | 0.00 | 0.00 | 83 | 1015.5 | |
| 20260507044603 | 7 | 45 | 1.6 | 3.2 | 0.00 | 0.00 | 0.00 | 83 | 1015.3 |
| 20260507043520 | 7 | 68 | 3.2 | 6.4 | 0.00 | 0.00 | 0.00 | 83 | 1015.2 |
| 20260507042539 | 7 | 68 | 3.2 | 6.4 | 0.00 | 0.00 | 0.00 | 82 | 1015.2 |
| 20260507041520 | 8 | 68 | 1.6 | 6.4 | 0.00 | 0.00 | 0.00 | 82 | 1015.2 |
| 20260507040519 | 8 | 90 | 1.6 | 6.4 | 0.00 | 0.00 | 0.00 | 82 | 1015.2 |
| 20260507035517 | 8 | 90 | 3.2 | 6.4 | 0.00 | 0.00 | 0.00 | 81 | 1015.2 |
| 20260507034519 | 8 | 90 | 4.8 | 8.0 | 0.00 | 0.00 | 0.00 | 81 | 1015.1 |
| 20260507033519 | 8 | 90 | 4.8 | 8.0 | 0.00 | 0.00 | 0.00 | 81 | 1015.1 |
| 20260507032518 | 8 | 113 | 3.2 | 9.7 | 0.00 | 0.00 | 0.00 | 81 | 1015.1 |
| 20260507031524 | 8 | 90 | 4.8 | 8.0 | 0.00 | 0.00 | 0.00 | 81 | 1015.1 |
| 20260507030538 | 8 | 68 | 4.8 | 9.7 | 0.00 | 0.00 | 0.00 | 82 | 1015.1 |
| 20260507025519 | 8 | 90 | 3.2 | 4.8 | 0.00 | 0.00 | 0.00 | 82 | 1015.3 |
| 20260507024518 | 8 | 68 | 4.8 | 8.0 | 0.00 | 0.00 | 0.00 | 82 | 1015.3 |
| 20260507023519 | 8 | 90 | 3.2 | 4.8 | 0.00 | 0.00 | 0.00 | 83 | 1015.3 |
| 20260507022633 | 8 | 90 | 1.6 | 6.4 | 0.00 | 0.00 | 0.00 | 83 | 1015.3 |
| 20260507021519 | 9 | 90 | 4.8 | 9.7 | 0.00 | 0.00 | 0.00 | 83 | 1015.3 |
| 20260507020518 | 9 | 90 | 1.6 | 6.4 | 0.00 | 0.00 | 0.00 | 83 | 1015.3 |
| 20260507015518 | 9 | 90 | 3.2 | 4.8 | 0.00 | 0.00 | 0.00 | 84 | 1015.1 |